Location: Kruen
(47.5000°N, 11.5000°E)
Time: 01:07:24
(UTC+02:00)

ISS - Visible Passes

Search period start: 20 October 2020 00:00
Search period end: 29 October 2020 23:00
Orbit: 418 x 419 km, 51.6° (Epoch: 19 October)

Date Brightness Start Highest point End Pass type
(mag) Time Alt. Az. Time Alt. Az. Time Alt. Az.
21 Oct -0.7 06:52:29 10° SSE 06:54:07 13° SE 06:55:45 10° ESE visible
23 Oct -1.9 06:52:05 10° SSW 06:55:04 30° SE 06:58:04 10° E visible
24 Oct -1.3 06:04:57 10° S 06:07:28 20° SE 06:10:01 10° E visible
25 Oct -0.9 04:19:31 13° SE 04:19:57 13° SE 04:21:32 10° ESE visible
25 Oct -3.5 05:52:53 10° SW 05:56:13 69° SSE 05:59:34 10° ENE visible
26 Oct -2.9 05:07:11 28° SSW 05:08:32 45° SSE 05:11:46 10° ENE visible
27 Oct -1.7 04:21:45 26° ESE 04:21:45 26° ESE 04:23:52 10° E visible
27 Oct -3.7 05:54:43 14° W 05:57:31 63° NNW 06:00:52 10° ENE visible
28 Oct -3.9 05:09:09 58° WSW 05:09:45 84° NNW 05:13:07 10° ENE visible
29 Oct -1.8 04:23:31 29° ENE 04:23:31 29° ENE 04:25:21 10° ENE visible
29 Oct -3.1 05:56:29 15° WNW 05:58:57 43° N 06:02:11 10° ENE visible
